Wind_Speed
24 25 24 25 25 25 25 24 24 23 23 24 25 25 25 26 25 25 26 26 27 28 28 28 27 26 25 26 26 27 27 27 27 28 28 29 31 32 34 35 36 37 37 37 38 39 40 42 43 44 45 45 44 42 40 38 37 37 36 35 35 34 34
26 27 27 27 27 27 27 27 26 26 25 25 26 27 27 28 27 27 27 27 28 29 29 29 29 28 27 27 28 29 29 29 29 29 30 31 32 33 35 36 37 37 37 38 38 39 40 42 43 43 44 44 43 41 39 37 37 37 35 34 34 34 34
28 29 30 29 28 28 28 28 28 27 26 26 27 28 29 29 29 29 29 29 29 29 30 30 30 30 30 30 30 31 31 31 31 31 31 32 33 34 35 36 37 37 38 38 39 40 41 42 43 42 42 42 41 39 38 38 38 37 35 34 34 34 34
27 29 30 30 29 30 30 30 29 28 27 27 28 29 30 30 30 30 30 29 30 30 30 30 31 32 32 32 32 32 33 33 33 32 32 33 34 35 36 37 38 38 38 39 40 40 41 42 42 41 40 40 39 38 37 38 38 38 37 36 36 36 36
24 27 29 29 30 31 31 30 29 29 28 28 29 30 30 31 31 31 30 30 31 31 31 31 32 33 34 34 34 34 34 35 35 34 34 34 35 36 37 38 38 38 39 39 40 41 41 42 42 40 39 38 37 37 37 37 38 38 37 37 38 38 37
22 25 27 28 30 31 31 31 30 29 29 29 30 30 31 32 32 31 31 31 32 32 32 31 32 34 35 35 35 35 35 36 36 35 35 35 36 37 38 38 39 39 39 39 40 41 42 42 42 39 37 37 37 36 37 37 38 38 38 39 40 40 39
21 23 25 26 28 29 30 31 30 30 30 30 30 31 31 32 33 32 31 31 32 32 32 32 33 35 36 36 36 36 36 37 36 36 36 36 37 37 38 39 39 39 40 40 41 42 43 42 41 39 37 37 37 37 37 38 38 39 39 40 42 42 42
21 22 24 25 26 28 30 30 30 30 30 30 31 31 32 33 33 32 31 32 33 33 33 33 33 35 36 37 37 37 37 37 37 36 36 36 37 38 39 40 40 40 40 40 41 42 43 43 42 39 38 37 37 37 38 39 39 40 41 41 42 43 43
21 22 23 25 27 28 29 30 30 31 31 31 31 32 32 33 34 33 32 33 34 35 34 33 34 35 37 38 38 38 38 38 38 37 37 37 38 39 40 40 41 41 40 41 41 43 44 43 42 40 39 38 38 38 39 40 42 43 43 43 43 42 43
22 22 23 25 27 29 30 31 32 31 31 32 32 32 33 34 34 34 34 35 36 36 35 34 35 36 37 38 39 39 39 39 39 38 38 38 39 40 41 41 42 42 41 41 42 43 44 43 42 40 39 39 39 39 41 42 44 45 45 45 43 42 41
24 25 25 26 27 29 30 32 32 32 32 32 32 33 34 35 35 35 36 37 38 38 36 35 35 36 37 38 39 39 39 40 40 39 39 39 40 41 42 43 43 43 42 42 42 43 44 44 42 40 39 39 39 40 42 44 45 46 46 45 43 40 39
26 26 27 28 29 30 31 32 32 32 32 32 33 34 35 35 36 37 38 39 39 39 38 36 36 37 38 39 39 40 41 41 41 41 40 40 41 42 44 45 46 45 44 43 43 43 44 43 42 41 40 40 40 41 43 44 46 47 46 44 41 39 38
28 28 27 28 29 31 32 33 34 34 34 34 35 36 36 36 37 39 40 40 41 40 39 38 37 38 38 39 40 41 42 42 42 41 41 42 43 44 45 47 47 46 45 45 44 44 44 43 42 41 41 42 42 43 44 45 46 46 45 41 39 38 37
30 30 29 29 29 31 32 33 34 35 36 36 37 36 37 38 39 40 41 41 42 41 40 39 38 39 39 40 41 42 43 42 42 43 43 43 44 45 47 48 48 47 46 45 45 44 44 43 42 42 42 43 44 44 45 45 45 45 42 39 37 37 36
30 31 31 31 31 32 33 34 35 36 36 37 38 38 38 39 40 41 42 42 42 41 40 40 39 40 41 42 42 43 44 43 43 44 44 45 45 46 48 49 49 48 47 45 45 44 43 43 42 43 43 45 46 45 45 46 44 43 40 36 34 35 35
31 31 32 33 33 34 35 35 36 37 37 38 39 39 39 40 41 42 42 43 43 42 40 39 40 41 42 43 44 45 45 44 44 45 45 46 46 48 49 51 50 49 48 46 45 44 44 43 43 44 44 45 46 46 46 45 42 40 38 35 33 34 34
31 32 32 33 34 35 36 37 38 38 38 39 40 40 41 42 42 42 43 44 43 41 39 39 40 43 44 45 45 46 46 45 45 46 46 47 48 49 50 51 51 49 48 46 46 45 44 43 43 44 45 45 46 46 45 43 40 37 36 34 32 32 32
32 32 33 33 35 36 37 37 37 38 39 40 41 41 42 43 43 42 43 44 42 40 39 40 42 44 46 46 46 46 46 46 46 46 46 47 49 50 51 52 51 50 48 46 46 45 45 44 44 45 46 46 45 44 43 41 37 35 34 32 31 31 30
33 33 34 34 35 37 38 37 37 39 40 41 42 42 43 43 42 42 43 42 41 40 41 42 44 46 47 47 47 47 46 46 46 46 47 48 50 51 51 52 51 49 48 46 45 45 45 44 45 46 46 45 44 42 40 37 34 33 32 30 29 29 28
33 34 35 35 35 36 37 37 38 39 40 41 42 43 42 41 41 42 42 41 41 43 44 44 46 47 48 48 48 47 47 47 47 47 48 49 50 51 52 52 51 49 48 46 45 45 44 45 46 46 45 43 42 40 38 35 32 31 31 29 28 27 27
33 34 34 35 35 35 35 36 37 39 40 41 41 41 41 41 42 42 41 41 43 45 46 47 48 48 48 48 49 48 48 47 47 48 49 50 51 52 52 51 50 48 47 46 45 44 44 45 45 44 43 42 40 37 35 33 30 29 29 28 27 26 27
32 32 33 33 33 34 34 35 36 38 39 39 39 39 40 41 41 41 41 43 45 46 47 48 50 49 49 49 49 49 49 48 48 49 49 50 51 51 51 50 48 48 47 46 45 44 44 44 42 41 41 39 36 33 32 31 29 28 28 28 26 26 27
30 31 31 31 32 33 33 34 36 37 37 38 38 39 40 41 41 41 42 44 46 47 48 50 51 50 49 49 49 49 49 49 49 49 50 50 50 50 50 49 49 49 48 46 44 44 43 42 40 39 38 35 32 30 30 30 29 28 27 28 26 26 27
29 30 30 31 32 32 33 34 35 36 36 37 38 40 40 40 41 42 44 45 46 47 49 50 51 50 49 49 49 49 49 49 48 49 49 49 49 48 48 49 49 49 48 46 44 43 41 40 36 34 34 32 30 28 27 28 29 28 28 28 27 26 28
29 30 31 32 32 33 33 34 35 35 36 37 38 40 40 41 42 43 44 45 46 47 49 50 50 49 48 48 48 49 49 48 48 48 48 49 48 47 47 49 50 50 48 46 44 42 40 39 36 32 31 30 28 27 26 27 28 29 29 28 27 27 29
31 32 33 33 33 34 35 35 36 37 38 38 39 40 41 42 43 44 44 44 45 46 48 49 48 48 47 47 47 48 49 49 48 48 48 47 46 46 48 50 51 50 49 47 44 41 39 39 36 33 31 29 27 26 26 26 27 29 29 28 27 27 29
34 34 34 34 34 35 36 37 37 38 39 40 40 41 41 42 43 43 44 44 45 46 47 47 47 47 46 45 46 48 49 48 48 48 48 46 45 46 49 51 51 50 49 46 42 39 38 37 35 32 29 28 27 25 24 25 26 27 28 27 27 27 28
36 36 36 36 37 37 38 38 39 39 40 40 40 40 41 41 42 44 45 45 46 47 47 47 48 48 47 46 46 47 47 47 47 47 48 47 46 47 50 51 50 50 48 44 41 38 37 36 35 31 28 27 27 25 23 23 25 27 27 27 26 26 27
38 38 38 38 39 39 39 39 39 40 40 40 39 40 40 41 43 44 45 46 47 48 48 48 49 49 48 46 46 46 46 47 47 47 47 48 48 49 50 50 49 48 45 41 39 37 36 35 34 31 29 27 26 24 22 22 25 28 27 26 25 25 26
39 39 39 40 40 40 40 40 40 40 39 39 39 39 40 41 43 44 45 45 46 47 47 48 48 48 47 46 45 45 46 46 46 47 47 48 49 49 49 49 48 45 41 38 36 36 35 34 32 31 29 27 25 23 22 22 25 27 27 26 25 24 24
40 40 41 41 41 41 41 40 40 40 39 39 39 40 40 42 43 44 45 45 45 46 46 47 46 46 46 45 45 45 45 45 45 46 47 48 48 48 48 48 47 43 40 38 37 35 34 34 31 30 28 26 24 22 22 23 25 26 26 25 24 23 23
41 41 42 42 42 41 41 41 40 39 39 40 40 41 42 43 44 44 45 46 46 46 46 46 46 45 44 44 44 44 44 44 44 45 46 47 47 47 47 47 46 43 40 39 37 35 34 32 29 28 27 25 24 23 23 23 24 25 25 24 23 23 23
40 41 41 42 42 42 41 41 40 40 40 41 42 42 43 44 45 45 45 46 47 47 47 46 46 44 44 44 44 44 43 44 44 45 45 46 46 46 47 46 44 42 41 40 38 36 33 29 26 26 26 26 26 25 24 24 24 25 25 24 22 22 23
38 39 41 42 43 43 42 42 41 41 42 43 44 44 44 45 45 45 45 46 47 47 47 46 45 44 44 44 43 43 43 43 43 43 44 45 45 46 46 44 42 40 41 40 37 36 32 27 25 25 25 25 25 24 23 23 24 25 25 24 23 22 22
39 40 42 43 43 43 43 43 43 44 45 45 45 45 45 45 45 45 45 46 47 47 46 45 43 43 43 43 42 42 42 41 41 42 42 43 44 44 44 43 41 40 40 39 37 34 30 26 24 24 23 22 21 21 21 22 23 23 24 23 23 22 22
42 42 43 43 43 42 43 45 46 47 47 47 46 46 45 45 45 46 46 47 47 47 45 43 42 42 42 42 41 41 41 40 40 41 41 42 43 43 42 41 41 40 39 36 33 30 26 23 21 21 20 18 18 18 19 20 21 22 23 22 22 22 22
45 45 45 46 44 43 45 47 49 50 50 48 47 47 46 46 46 46 47 48 48 46 44 43 42 42 42 41 40 40 39 39 39 40 40 40 40 41 40 40 39 37 34 29 25 23 21 19 18 18 17 17 17 17 18 19 20 21 22 22 22 22 22
46 47 48 48 46 45 47 50 52 52 50 49 48 48 47 47 47 47 47 48 48 46 43 42 42 41 41 40 40 39 38 38 38 38 39 39 38 38 38 38 36 33 29 24 19 17 16 16 15 15 16 16 16 16 17 18 20 20 21 21 21 21 22
Wind_Direction
260 265 268 270 273 275 278 280 282 285 288 293 298 302 305 308 310 312 314 315 317 320 321 321 320 316 311 309 312 315 316 315 316 317 318 319 320 321 321 320 320 318 316 313 311 310 309 309 311 313 314 312 309 305 303 302 302 302 301 300 300 299 297
261 263 266 269 272 275 279 281 283 284 286 290 294 298 301 304 307 308 310 311 313 317 320 320 320 317 312 310 312 314 314 314 314 315 317 318 319 320 320 320 319 318 315 313 311 310 308 309 310 313 314 312 309 304 301 301 302 303 303 303 303 303 302
261 263 266 269 272 275 279 282 283 284 284 287 292 295 298 301 304 306 307 308 310 313 317 319 319 317 314 311 311 312 313 312 312 313 314 316 317 318 319 319 319 317 315 313 311 309 308 308 310 313 315 313 309 304 300 300 302 303 305 306 307 307 307
262 263 265 267 271 275 278 280 282 283 283 286 289 292 295 299 302 304 305 307 308 310 314 316 317 317 315 312 310 310 311 311 310 310 312 314 316 317 318 318 318 317 315 313 310 309 308 308 311 313 314 312 309 304 301 301 302 302 305 309 311 310 307
268 268 268 269 271 274 276 278 280 282 283 285 288 291 294 297 299 302 305 307 307 308 310 313 315 315 314 312 309 308 309 309 309 309 310 312 314 316 317 318 318 317 315 312 310 309 308 308 311 313 313 311 308 305 303 303 302 302 303 307 310 310 307
277 276 275 274 273 273 274 276 279 281 283 284 287 290 292 294 297 302 305 306 306 306 308 310 312 313 313 311 309 307 308 308 308 308 309 311 312 314 317 318 318 316 314 312 310 309 308 309 311 313 312 310 308 307 305 305 304 302 302 304 307 309 307
284 283 282 280 278 276 275 276 278 280 282 284 287 288 290 292 296 301 304 304 305 305 306 308 309 310 310 309 308 307 307 308 307 307 308 309 311 313 316 317 317 316 314 312 310 310 309 310 312 313 311 310 308 307 306 306 305 303 303 304 306 307 306
288 286 286 284 282 280 278 278 279 280 281 284 286 287 288 291 295 300 302 303 304 304 304 305 306 307 308 308 308 307 307 307 307 306 307 308 310 312 314 316 316 315 314 312 310 310 310 311 313 313 311 310 309 307 306 306 305 304 303 304 305 305 304
290 289 287 285 283 282 281 280 280 280 281 283 284 285 288 291 295 299 301 302 303 303 302 302 303 305 306 307 308 307 307 307 307 307 307 308 309 311 313 315 315 315 313 312 311 310 311 311 312 312 312 311 310 307 305 304 304 304 303 304 305 304 302
293 292 290 286 283 281 281 281 280 281 281 281 283 285 288 291 294 298 301 301 302 302 301 301 301 303 305 307 308 307 306 306 307 307 307 307 309 310 312 314 315 315 313 312 311 311 311 311 312 312 312 311 311 308 306 305 305 305 305 304 305 303 301
293 294 293 289 286 283 281 280 280 280 281 282 284 286 288 291 294 298 300 300 301 301 301 301 301 302 304 306 307 307 306 306 307 307 307 307 308 309 312 314 315 315 313 312 311 310 310 311 311 312 312 311 311 309 307 306 306 305 306 306 306 303 300
291 292 291 289 286 284 282 282 282 282 282 283 284 285 287 291 295 297 299 300 301 301 301 301 301 301 303 306 307 307 306 306 307 308 307 307 308 310 312 314 314 314 313 312 311 310 310 311 311 311 311 310 310 309 307 306 306 306 307 307 307 304 302
290 290 289 286 283 281 281 281 281 282 282 282 283 285 288 292 294 297 298 299 301 302 302 301 300 300 303 305 307 307 307 308 308 308 308 308 309 311 313 313 313 313 313 312 311 311 311 310 310 310 309 309 309 308 307 306 306 306 307 308 307 305 305
288 289 289 287 285 282 280 279 279 280 281 282 284 286 289 292 294 296 298 299 301 301 301 301 299 300 303 306 308 308 308 309 309 309 309 310 311 312 312 312 312 312 312 312 311 311 311 310 309 308 308 308 308 309 308 307 306 306 306 307 306 305 306
284 286 287 288 288 285 283 282 280 280 281 283 285 287 289 292 294 296 298 299 300 300 300 299 299 302 305 307 308 309 309 310 310 310 310 310 310 311 311 311 311 312 312 312 311 311 310 309 307 306 306 306 307 308 307 306 305 305 304 305 304 304 307
281 283 284 286 286 285 284 283 282 282 283 285 286 288 290 292 294 296 298 298 298 298 298 299 301 303 306 307 308 309 310 310 310 310 309 309 310 311 311 311 312 313 313 312 311 310 309 307 306 305 305 305 306 306 306 305 304 304 303 303 303 305 308
277 279 280 282 282 282 282 282 282 284 285 285 286 288 290 292 294 296 297 298 297 297 298 300 302 305 306 307 308 309 309 310 309 309 308 308 310 312 312 312 313 313 312 312 310 308 307 307 306 305 305 305 306 305 304 303 303 302 301 301 303 306 309
274 275 277 278 279 279 280 281 282 283 284 285 287 288 290 292 295 296 297 297 297 298 299 301 303 304 306 307 308 308 308 308 307 307 307 309 311 313 314 313 313 313 312 311 309 308 307 307 306 306 306 306 306 304 303 303 302 300 299 301 303 306 310
274 275 275 275 275 276 278 279 280 281 282 284 286 287 289 292 295 296 296 296 297 298 300 301 303 304 305 307 307 307 307 307 306 307 308 310 312 314 314 314 313 313 312 310 309 308 308 308 307 307 306 306 306 304 303 302 300 297 297 300 302 306 311
274 275 274 274 274 274 276 277 278 279 281 283 284 287 290 293 293 293 293 294 295 296 299 300 302 304 305 306 307 307 307 307 307 308 309 311 313 314 314 313 313 313 312 311 310 309 309 308 308 308 307 306 306 305 304 301 297 295 297 299 302 305 311
275 274 274 274 273 273 274 275 276 278 280 282 285 288 290 291 291 291 290 290 292 295 298 300 302 304 306 307 307 307 307 308 308 309 310 312 313 313 313 313 313 312 312 312 311 310 310 310 309 308 307 307 307 306 304 301 297 295 297 299 301 305 310
274 274 274 275 274 274 274 274 276 278 280 283 285 287 288 288 288 288 288 290 292 295 298 300 302 305 307 307 307 307 308 308 308 309 311 312 312 313 313 313 312 312 311 311 311 311 311 310 309 308 307 308 309 308 305 302 299 297 297 298 301 304 308
274 275 276 277 277 276 276 276 278 279 281 283 284 285 285 286 286 286 288 291 293 296 299 302 304 306 307 307 307 307 307 308 308 309 310 311 312 313 313 312 311 311 312 312 312 312 312 310 309 308 307 305 305 306 306 305 302 299 297 298 301 303 307
276 278 279 280 279 278 278 278 278 279 281 282 283 284 285 286 286 287 289 292 295 299 302 303 305 306 307 307 307 306 306 307 307 308 309 310 311 312 312 311 311 311 313 313 312 311 311 309 308 308 308 305 299 297 300 302 302 300 298 299 303 305 306
281 284 285 285 284 283 281 281 281 281 282 282 283 285 287 287 287 289 292 295 299 302 303 303 304 305 306 306 306 305 305 306 306 307 308 309 310 310 310 311 311 311 312 312 311 309 305 303 303 303 303 303 299 295 297 300 301 300 300 301 304 306 307
285 287 289 289 288 287 286 285 284 284 284 284 285 286 287 288 289 292 296 299 301 302 302 302 304 305 305 306 305 305 305 305 306 307 308 309 310 309 309 310 310 311 312 313 313 309 302 298 298 297 297 298 298 297 297 298 298 298 300 303 305 307 307
287 288 289 290 290 289 288 287 285 285 285 285 285 285 287 289 291 294 296 298 300 300 301 302 304 304 305 305 305 305 304 305 306 307 308 310 309 308 308 310 310 311 313 314 313 309 302 297 294 293 294 296 296 297 296 296 297 299 300 303 306 307 307
287 288 289 290 290 289 289 288 286 285 285 285 285 286 288 290 292 295 297 299 301 302 303 304 304 305 305 305 305 305 305 306 308 309 309 310 309 308 309 310 311 312 313 314 312 307 301 296 292 290 291 293 295 295 295 297 300 300 299 301 304 306 307
286 287 288 289 289 288 288 287 286 285 285 285 286 287 289 292 295 298 300 302 303 304 305 306 305 305 306 305 305 305 306 308 309 310 310 310 309 309 310 311 312 312 312 312 311 307 301 295 290 287 288 292 293 291 294 299 298 295 296 301 305 306 307
286 286 286 286 286 286 285 285 284 284 285 286 287 289 292 294 297 299 301 302 303 304 305 305 305 304 305 305 306 307 308 309 310 310 310 310 310 310 311 312 311 311 312 311 309 306 301 295 289 285 286 289 290 288 291 295 294 292 296 302 307 309 310
284 283 284 284 284 284 284 284 285 286 287 288 289 291 293 295 297 299 300 301 302 303 304 304 304 305 305 306 307 308 309 309 309 309 309 309 310 311 311 311 311 311 311 309 306 303 300 295 288 282 281 284 285 286 289 291 292 293 295 297 302 309 311
282 282 282 283 283 283 285 286 287 289 290 291 291 292 293 295 297 299 299 300 301 302 303 304 305 306 307 307 307 307 308 308 308 308 309 310 311 311 311 311 312 311 309 306 302 299 298 294 286 278 278 279 280 283 288 288 289 293 295 297 300 305 308
282 283 284 285 286 286 287 289 290 291 292 292 292 292 293 296 298 299 299 300 301 302 304 306 307 308 307 306 306 306 306 307 308 309 310 310 310 310 310 312 313 311 306 303 300 296 294 291 282 275 276 277 277 281 284 284 286 291 295 298 301 302 304
284 286 288 290 290 290 290 290 291 292 292 291 291 292 294 296 298 299 299 300 301 304 307 308 308 306 305 304 304 305 305 307 308 309 309 310 310 310 311 312 313 309 303 300 297 293 289 285 280 276 276 275 274 276 279 280 282 287 291 295 300 302 302
283 284 286 288 290 289 289 290 290 291 290 290 291 292 294 296 297 299 299 301 302 304 306 307 305 304 303 303 303 303 305 306 307 307 307 308 309 310 311 312 312 308 302 297 293 289 285 280 277 276 275 273 272 275 278 281 283 285 289 293 299 303 304
282 282 283 285 287 286 286 287 288 289 289 290 291 292 293 295 297 298 300 301 302 304 305 305 304 302 302 301 301 301 303 304 306 306 306 307 308 310 311 312 310 308 303 296 289 284 280 276 273 274 273 272 273 277 281 285 288 289 292 297 301 305 308
281 281 282 283 283 282 282 283 285 287 288 290 291 293 293 295 296 298 299 301 302 304 305 305 304 302 300 300 300 300 302 304 304 304 305 306 308 309 311 311 312 310 306 297 286 277 274 272 270 270 272 273 274 278 283 287 292 294 297 302 306 308 309
278 279 281 281 279 278 280 282 284 286 288 290 291 293 294 295 296 297 299 300 302 304 304 304 303 301 299 299 299 300 301 302 303 303 304 306 307 308 310 311 312 311 305 295 283 272 267 266 265 267 271 273 274 280 285 287 291 294 296 301 304 305 307
Height
5921 5921 5921 5921 5922 5921 5920 5920 5919 5919 5918 5917 5916 5915 5914 5913 5912 5911 5910 5908 5906 5905 5903 5901 5900 5898 5896 5895 5893 5891 5889 5888 5886 5883 5881 5879 5876 5874 5871 5868 5866 5864 5861 5859 5857 5854 5851 5848 5846 5843 5839 5836 5833 5830 5828 5826 5825 5823 5821 5820 5818 5817 5816
5919 5919 5918 5919 5919 5919 5918 5917 5916 5916 5915 5914 5913 5912 5911 5910 5909 5908 5907 5905 5904 5902 5900 5899 5897 5895 5893 5891 5890 5888 5886 5884 5882 5880 5878 5875 5873 5870 5868 5865 5863 5860 5858 5856 5853 5851 5848 5845 5843 5840 5836 5833 5830 5827 5825 5823 5821 5819 5818 5816 5814 5813 5811
5916 5916 5915 5916 5916 5916 5915 5914 5913 5913 5912 5911 5910 5910 5908 5907 5906 5906 5904 5903 5901 5899 5898 5896 5894 5892 5890 5888 5886 5884 5882 5880 5878 5876 5874 5872 5870 5867 5864 5862 5859 5857 5855 5852 5850 5847 5845 5842 5839 5836 5833 5829 5826 5824 5822 5820 5818 5815 5813 5812 5810 5809 5807
5913 5912 5912 5913 5913 5913 5912 5911 5910 5910 5909 5908 5908 5907 5906 5904 5904 5903 5901 5899 5898 5896 5894 5893 5891 5889 5887 5885 5883 5881 5879 5877 5875 5873 5871 5868 5866 5864 5861 5858 5856 5853 5851 5849 5846 5843 5841 5838 5835 5832 5829 5826 5823 5820 5818 5816 5814 5811 5809 5807 5805 5804 5803
5910 5909 5909 5910 5910 5909 5909 5908 5907 5906 5906 5905 5904 5903 5902 5901 5900 5900 5898 5896 5894 5893 5891 5890 5888 5886 5884 5882 5880 5878 5876 5874 5872 5869 5867 5865 5862 5860 5857 5855 5852 5850 5847 5845 5842 5840 5837 5834 5831 5828 5825 5822 5819 5817 5814 5812 5810 5807 5805 5803 5800 5798 5797
5907 5907 5906 5906 5906 5905 5905 5904 5903 5903 5902 5902 5901 5900 5899 5898 5897 5896 5895 5893 5891 5890 5888 5887 5885 5883 5881 5879 5877 5875 5873 5871 5868 5866 5864 5861 5859 5856 5854 5851 5848 5845 5843 5840 5838 5835 5832 5830 5827 5824 5821 5818 5815 5813 5810 5808 5806 5803 5801 5798 5795 5792 5790
5904 5903 5903 5902 5902 5902 5901 5901 5900 5900 5899 5898 5898 5897 5896 5895 5894 5893 5892 5890 5888 5887 5885 5884 5882 5880 5878 5876 5874 5872 5870 5868 5865 5863 5860 5858 5855 5853 5850 5847 5844 5841 5838 5836 5833 5830 5827 5824 5822 5819 5816 5813 5811 5809 5806 5803 5801 5798 5796 5793 5790 5787 5784
5901 5900 5900 5899 5898 5898 5897 5897 5897 5896 5896 5895 5894 5894 5893 5892 5890 5890 5889 5887 5885 5883 5882 5880 5879 5876 5874 5872 5870 5868 5866 5864 5862 5859 5856 5854 5851 5849 5846 5843 5840 5837 5834 5831 5828 5825 5822 5819 5816 5814 5811 5808 5806 5804 5801 5798 5796 5793 5791 5789 5785 5782 5778
5898 5897 5897 5896 5895 5895 5894 5894 5893 5893 5893 5892 5891 5890 5889 5888 5887 5886 5885 5883 5882 5880 5878 5877 5875 5873 5870 5868 5866 5864 5862 5860 5857 5855 5852 5850 5847 5844 5842 5839 5835 5832 5829 5826 5823 5820 5817 5814 5811 5808 5805 5803 5800 5798 5796 5793 5790 5787 5785 5783 5780 5777 5773
5895 5894 5894 5893 5892 5891 5890 5890 5890 5889 5889 5888 5888 5887 5886 5884 5883 5882 5881 5880 5878 5876 5875 5873 5871 5869 5867 5864 5862 5859 5857 5855 5852 5850 5847 5845 5843 5840 5837 5834 5831 5828 5825 5822 5819 5815 5812 5809 5806 5803 5800 5797 5795 5792 5790 5787 5784 5781 5779 5777 5774 5772 5768
5891 5891 5890 5890 5889 5888 5887 5886 5886 5886 5885 5885 5884 5883 5882 5881 5879 5878 5877 5875 5874 5872 5871 5869 5867 5865 5863 5860 5858 5855 5853 5850 5848 5845 5843 5840 5838 5835 5832 5829 5826 5823 5820 5817 5814 5811 5807 5804 5801 5798 5795 5792 5789 5787 5784 5781 5778 5775 5773 5770 5768 5765 5762
5888 5888 5887 5886 5885 5884 5883 5883 5882 5882 5882 5881 5880 5879 5878 5877 5875 5874 5873 5871 5869 5868 5866 5865 5863 5860 5858 5856 5853 5851 5849 5846 5843 5840 5838 5836 5833 5830 5827 5824 5821 5818 5815 5812 5809 5806 5803 5799 5796 5793 5790 5787 5784 5781 5778 5775 5772 5769 5766 5764 5761 5759 5756
5884 5884 5884 5883 5882 5881 5880 5879 5879 5878 5878 5877 5876 5876 5874 5873 5872 5870 5868 5866 5865 5863 5862 5860 5858 5856 5853 5851 5849 5847 5844 5841 5838 5835 5833 5830 5828 5825 5822 5818 5815 5813 5810 5807 5804 5801 5798 5795 5792 5788 5785 5782 5779 5776 5773 5770 5766 5763 5761 5758 5755 5753 5750
5880 5879 5879 5879 5878 5877 5876 5876 5875 5875 5874 5873 5872 5872 5870 5869 5868 5866 5864 5862 5861 5859 5857 5855 5853 5851 5849 5847 5845 5842 5839 5836 5834 5831 5828 5825 5823 5820 5817 5813 5810 5808 5805 5802 5799 5796 5793 5790 5787 5784 5780 5777 5774 5771 5767 5764 5761 5758 5755 5754 5751 5748 5745
5877 5875 5875 5874 5874 5873 5872 5871 5871 5870 5870 5869 5868 5868 5866 5865 5863 5861 5860 5858 5856 5855 5853 5850 5848 5846 5844 5842 5840 5837 5834 5832 5829 5826 5823 5820 5818 5815 5811 5808 5805 5803 5800 5797 5794 5791 5788 5785 5782 5779 5775 5772 5768 5765 5762 5759 5756 5752 5750 5749 5746 5743 5741
5874 5872 5871 5870 5869 5868 5868 5867 5866 5866 5866 5865 5864 5863 5862 5861 5859 5857 5855 5854 5852 5850 5848 5846 5843 5841 5839 5837 5835 5832 5830 5827 5824 5821 5818 5816 5813 5810 5806 5803 5800 5797 5794 5791 5788 5785 5783 5780 5777 5774 5771 5767 5764 5760 5757 5754 5751 5748 5745 5744 5742 5739 5736
5870 5869 5867 5866 5865 5864 5863 5863 5862 5862 5861 5860 5860 5859 5858 5856 5854 5853 5851 5849 5847 5845 5843 5841 5839 5837 5835 5832 5830 5828 5825 5822 5819 5816 5813 5811 5808 5805 5801 5798 5795 5792 5789 5787 5783 5780 5777 5775 5772 5769 5765 5762 5759 5755 5752 5749 5746 5743 5741 5739 5737 5735 5732
5865 5864 5863 5863 5861 5860 5859 5859 5858 5858 5857 5856 5855 5855 5853 5852 5850 5849 5847 5844 5842 5840 5839 5837 5835 5832 5830 5828 5826 5823 5820 5817 5815 5812 5809 5806 5803 5800 5796 5792 5790 5787 5785 5782 5779 5775 5772 5769 5766 5763 5760 5757 5754 5750 5747 5744 5742 5739 5736 5735 5733 5731 5728
5861 5860 5859 5858 5857 5856 5855 5855 5854 5853 5852 5852 5851 5850 5849 5848 5846 5844 5842 5839 5838 5836 5834 5832 5831 5828 5826 5823 5821 5819 5816 5813 5810 5807 5805 5802 5799 5796 5791 5788 5785 5782 5780 5777 5774 5770 5767 5764 5761 5758 5755 5752 5749 5745 5742 5740 5737 5734 5732 5731 5729 5727 5724
5856 5855 5854 5854 5853 5852 5851 5851 5850 5849 5848 5847 5847 5846 5845 5844 5842 5839 5837 5835 5833 5831 5829 5828 5826 5824 5821 5819 5816 5814 5811 5808 5805 5803 5800 5797 5794 5791 5787 5784 5781 5778 5775 5772 5769 5766 5762 5759 5755 5752 5749 5746 5744 5741 5738 5736 5733 5730 5728 5727 5725 5723 5720
5851 5850 5850 5849 5848 5848 5847 5846 5845 5844 5844 5843 5843 5842 5841 5839 5837 5834 5832 5831 5828 5826 5825 5823 5821 5819 5817 5814 5811 5809 5806 5804 5801 5798 5795 5792 5789 5786 5783 5780 5777 5774 5771 5767 5764 5760 5757 5754 5750 5747 5744 5741 5739 5736 5734 5732 5730 5727 5725 5724 5722 5720 5717
5846 5845 5845 5844 5844 5843 5843 5842 5841 5840 5840 5839 5839 5838 5836 5834 5832 5830 5828 5826 5824 5822 5820 5818 5815 5813 5811 5809 5806 5803 5801 5798 5796 5793 5790 5787 5784 5781 5778 5775 5772 5769 5766 5762 5758 5755 5752 5749 5746 5743 5739 5736 5734 5732 5730 5728 5726 5724 5722 5720 5719 5717 5714
5841 5841 5840 5840 5840 5839 5838 5838 5837 5836 5836 5835 5834 5832 5831 5829 5827 5825 5823 5822 5820 5818 5816 5813 5810 5808 5806 5803 5800 5798 5796 5793 5791 5788 5785 5782 5779 5776 5773 5770 5767 5763 5760 5757 5753 5750 5747 5744 5742 5739 5736 5733 5730 5728 5726 5724 5722 5721 5719 5718 5716 5714 5711
5837 5836 5836 5836 5835 5835 5834 5833 5832 5832 5831 5830 5829 5827 5825 5824 5822 5820 5819 5817 5815 5813 5811 5807 5805 5803 5800 5798 5795 5793 5790 5788 5786 5783 5781 5778 5774 5771 5767 5764 5761 5758 5755 5752 5749 5746 5743 5740 5737 5734 5731 5729 5727 5725 5723 5721 5719 5717 5716 5715 5713 5711 5709
5833 5832 5832 5831 5831 5830 5829 5828 5827 5827 5826 5825 5823 5822 5820 5819 5817 5816 5814 5812 5810 5808 5805 5802 5800 5798 5795 5793 5790 5787 5785 5783 5781 5778 5776 5773 5769 5766 5762 5759 5756 5753 5750 5747 5744 5741 5738 5735 5733 5731 5728 5726 5724 5722 5720 5718 5716 5714 5713 5712 5711 5708 5706
5828 5828 5827 5826 5826 5825 5824 5823 5822 5822 5820 5819 5818 5817 5816 5814 5813 5811 5809 5808 5806 5803 5800 5798 5796 5793 5791 5788 5785 5782 5780 5778 5775 5773 5770 5767 5764 5760 5757 5754 5751 5747 5744 5741 5739 5736 5733 5730 5728 5727 5725 5723 5721 5719 5717 5716 5714 5713 5711 5709 5708 5706 5703
5824 5823 5822 5822 5821 5820 5819 5818 5817 5816 5815 5814 5813 5812 5811 5809 5808 5806 5804 5803 5801 5798 5795 5793 5791 5788 5786 5783 5780 5777 5774 5772 5770 5767 5765 5762 5758 5755 5752 5749 5745 5742 5739 5736 5734 5731 5728 5725 5724 5723 5722 5720 5718 5716 5714 5713 5711 5710 5708 5706 5704 5703 5700
5819 5819 5818 5818 5817 5816 5815 5814 5813 5812 5811 5810 5809 5808 5806 5804 5802 5801 5799 5797 5795 5792 5789 5787 5785 5783 5780 5777 5775 5772 5769 5766 5764 5761 5758 5756 5753 5750 5746 5743 5739 5736 5733 5730 5728 5726 5724 5721 5719 5718 5717 5716 5714 5712 5711 5710 5708 5706 5704 5703 5702 5700 5697
5815 5814 5814 5813 5812 5811 5810 5809 5808 5807 5806 5805 5804 5802 5801 5799 5797 5795 5793 5791 5788 5785 5783 5780 5778 5776 5774 5772 5769 5766 5763 5760 5758 5755 5752 5749 5746 5743 5740 5737 5734 5730 5728 5725 5723 5721 5719 5717 5715 5714 5713 5712 5711 5709 5709 5708 5705 5703 5702 5701 5700 5698 5696
5810 5809 5809 5808 5807 5806 5805 5804 5803 5802 5801 5800 5799 5797 5795 5794 5792 5790 5788 5785 5782 5780 5777 5775 5772 5771 5769 5766 5763 5760 5757 5755 5752 5749 5746 5743 5740 5737 5733 5731 5728 5725 5723 5720 5718 5716 5714 5712 5711 5710 5710 5709 5708 5706 5706 5704 5701 5699 5699 5699 5698 5696 5694
5805 5804 5804 5803 5802 5801 5800 5799 5797 5796 5795 5795 5793 5792 5790 5788 5786 5784 5782 5780 5777 5775 5772 5770 5768 5766 5763 5761 5758 5755 5752 5749 5746 5744 5741 5737 5734 5731 5728 5725 5723 5720 5718 5715 5713 5712 5710 5708 5707 5706 5706 5705 5704 5704 5703 5702 5699 5696 5696 5695 5694 5693 5692
5800 5799 5798 5798 5797 5795 5794 5793 5792 5791 5790 5789 5788 5787 5785 5783 5781 5779 5776 5774 5772 5770 5768 5765 5763 5761 5758 5755 5752 5750 5747 5744 5741 5739 5735 5732 5728 5726 5723 5720 5717 5715 5713 5711 5709 5707 5705 5704 5703 5702 5702 5701 5701 5700 5699 5698 5695 5693 5692 5692 5691 5690 5689
5793 5793 5793 5792 5791 5790 5789 5788 5786 5785 5784 5783 5782 5781 5779 5777 5775 5773 5771 5769 5766 5764 5762 5760 5757 5755 5752 5750 5747 5744 5742 5739 5736 5733 5730 5727 5724 5720 5718 5716 5713 5710 5708 5706 5705 5703 5701 5700 5699 5698 5698 5698 5697 5696 5695 5694 5692 5690 5690 5689 5689 5688 5686
5787 5787 5786 5786 5785 5784 5783 5782 5781 5780 5778 5777 5776 5774 5772 5771 5769 5767 5765 5763 5761 5758 5756 5754 5752 5749 5747 5744 5741 5739 5737 5734 5731 5727 5724 5721 5719 5715 5712 5710 5708 5706 5703 5701 5700 5698 5697 5696 5695 5694 5694 5694 5694 5693 5692 5690 5689 5688 5687 5686 5686 5685 5683
5781 5781 5781 5780 5779 5778 5777 5776 5775 5774 5772 5771 5770 5768 5767 5765 5763 5761 5760 5758 5755 5753 5751 5749 5747 5744 5741 5738 5736 5733 5731 5729 5726 5723 5720 5717 5714 5712 5708 5705 5703 5701 5699 5696 5694 5693 5692 5691 5691 5691 5691 5691 5690 5689 5688 5687 5686 5685 5684 5684 5683 5682 5681
5775 5775 5775 5774 5773 5772 5771 5770 5769 5768 5766 5765 5764 5762 5761 5760 5758 5756 5754 5752 5749 5748 5746 5744 5741 5738 5735 5733 5731 5729 5726 5724 5721 5718 5715 5712 5710 5707 5704 5701 5698 5695 5692 5690 5689 5688 5687 5687 5687 5687 5687 5687 5687 5686 5685 5684 5683 5682 5682 5681 5680 5679 5678
5770 5769 5769 5768 5767 5766 5765 5764 5763 5761 5760 5759 5758 5756 5755 5754 5752 5750 5748 5746 5744 5742 5740 5738 5735 5732 5730 5727 5725 5723 5721 5719 5716 5714 5711 5708 5705 5702 5699 5696 5693 5690 5687 5685 5684 5683 5683 5683 5684 5684 5684 5684 5684 5683 5682 5682 5681 5680 5679 5678 5677 5677 5676
5764 5763 5762 5761 5760 5760 5759 5757 5756 5755 5754 5752 5751 5750 5748 5747 5746 5744 5742 5739 5737 5736 5734 5731 5729 5727 5724 5722 5720 5718 5715 5713 5711 5709 5706 5704 5701 5698 5695 5691 5689 5686 5684 5682 5680 5680 5680 5681 5681 5682 5682 5681 5681 5680 5680 5679 5679 5678 5677 5676 5675 5675 5674